• In Deutschland
  • Länderverzeichnis
  • Für 7 Tage
  • Wassertemperatur
  • Satellitenkarten
  • Wetterkarte
  • Widgets
  • user-avatar
    Anmelden

    Stündliche Wetter Hrasdan

    Heute, 17 August, Donnerstag

    Zeit Temperatur Niederschläge Wind Luftdruck Luftfeuchtigkeit
    00:00 +15°C° 0,4 mm 1 m/S 614 mmHg 73%
    01:00 +14°C° 0,3 mm 1 m/S 614 mmHg 76%
    02:00 +14°C° 0,3 mm 1 m/S 614 mmHg 79%
    03:00 +13°C° 0 mm 1 m/S 613 mmHg 83%
    04:00 +13°C° 0 mm 1 m/S 613 mmHg 83%
    05:00 +14°C° 0 mm 1 m/S 614 mmHg 82%
    06:00 +14°C° 0 mm 1 m/S 614 mmHg 82%
    07:00 +15°C° 0,3 mm 1 m/S 614 mmHg 75%
    08:00 +18°C° 0,3 mm 1 m/S 615 mmHg 67%
    09:00 +20°C° 0 mm 1 m/S 616 mmHg 56%
    10:00 +21°C° 0,1 mm 2 m/S 616 mmHg 51%
    11:00 +23°C° 0,1 mm 2 m/S 616 mmHg 47%
    12:00 +25°C° 0,1 mm 2 m/S 617 mmHg 42%
    13:00 +25°C° 0,3 mm 2 m/S 616 mmHg 42%
    14:00 +25°C° 0,3 mm 3 m/S 616 mmHg 42%
    15:00 +24°C° 0 mm 2 m/S 616 mmHg 47%
    16:00 +23°C° 0,6 mm 2 m/S 616 mmHg 51%
    17:00 +21°C° 0,6 mm 2 m/S 615 mmHg 55%
    18:00 +21°C° 0,6 mm 2 m/S 615 mmHg 59%
    19:00 +19°C° 0,2 mm 2 m/S 615 mmHg 66%
    20:00 +17°C° 0,2 mm 2 m/S 614 mmHg 74%
    21:00 +15°C° 0,2 mm 2 m/S 614 mmHg 81%
    22:00 +15°C° 0 mm 2 m/S 614 mmHg 82%
    23:00 +14°C° 0 mm 2 m/S 614 mmHg 84%

    Morgen, 18 August, Freitag

    Zeit Temperatur Niederschläge Wind Luftdruck Luftfeuchtigkeit
    00:00 +14°C° 0 mm 2 m/S 614 mmHg 85%
    01:00 +14°C° 0 mm 2 m/S 613 mmHg 85%
    02:00 +13°C° 0 mm 2 m/S 613 mmHg 86%
    03:00 +13°C° 0 mm 2 m/S 613 mmHg 86%
    04:00 +13°C° 0 mm 2 m/S 613 mmHg 85%
    05:00 +13°C° 0 mm 2 m/S 613 mmHg 84%
    06:00 +13°C° 0 mm 1 m/S 614 mmHg 83%
    07:00 +16°C° 0 mm 1 m/S 614 mmHg 73%
    08:00 +19°C° 0 mm 1 m/S 615 mmHg 62%
    09:00 +22°C° 0 mm 1 m/S 616 mmHg 52%
    10:00 +23°C° 0 mm 2 m/S 616 mmHg 48%
    11:00 +25°C° 0 mm 2 m/S 617 mmHg 43%
    12:00 +26°C° 0 mm 2 m/S 617 mmHg 39%
    13:00 +27°C° 0 mm 2 m/S 617 mmHg 38%
    14:00 +27°C° 0 mm 2 m/S 617 mmHg 37%
    15:00 +27°C° 0 mm 2 m/S 617 mmHg 36%
    16:00 +26°C° 0,3 mm 2 m/S 616 mmHg 41%
    17:00 +25°C° 0,3 mm 2 m/S 616 mmHg 47%
    18:00 +24°C° 0,3 mm 2 m/S 615 mmHg 52%
    19:00 +21°C° 0,2 mm 2 m/S 615 mmHg 59%
    20:00 +19°C° 0,2 mm 2 m/S 615 mmHg 66%
    21:00 +17°C° 0,2 mm 2 m/S 615 mmHg 74%
    22:00 +16°C° 0 mm 2 m/S 615 mmHg 74%
    23:00 +16°C° 0 mm 2 m/S 615 mmHg 75%

    übermorgen, 19 August, Samstag

    Zeit Temperatur Niederschläge Wind Luftdruck Luftfeuchtigkeit
    00:00 +15°C° 0 mm 2 m/S 615 mmHg 76%
    01:00 +15°C° 0 mm 2 m/S 615 mmHg 76%
    02:00 +14°C° 0 mm 2 m/S 615 mmHg 77%
    03:00 +14°C° 0 mm 2 m/S 615 mmHg 77%
    04:00 +14°C° 0 mm 2 m/S 615 mmHg 76%
    05:00 +14°C° 0 mm 2 m/S 615 mmHg 75%
    06:00 +14°C° 0 mm 2 m/S 615 mmHg 74%
    07:00 +16°C° 0 mm 2 m/S 616 mmHg 65%
    08:00 +19°C° 0 mm 2 m/S 617 mmHg 56%
    09:00 +21°C° 0 mm 2 m/S 618 mmHg 47%
    10:00 +23°C° 0 mm 2 m/S 618 mmHg 43%
    11:00 +25°C° 0 mm 2 m/S 618 mmHg 40%
    12:00 +26°C° 0 mm 3 m/S 619 mmHg 36%
    13:00 +27°C° 0 mm 3 m/S 618 mmHg 35%
    14:00 +27°C° 0 mm 3 m/S 618 mmHg 34%
    15:00 +27°C° 0 mm 3 m/S 618 mmHg 33%
    16:00 +26°C° 0 mm 3 m/S 618 mmHg 37%
    17:00 +25°C° 0 mm 3 m/S 617 mmHg 41%
    18:00 +24°C° 0 mm 3 m/S 617 mmHg 45%
    19:00 +21°C° 0 mm 2 m/S 617 mmHg 48%
    20:00 +19°C° 0 mm 2 m/S 617 mmHg 51%
    21:00 +17°C° 0 mm 2 m/S 617 mmHg 55%
    22:00 +16°C° 0 mm 2 m/S 617 mmHg 54%
    23:00 +16°C° 0 mm 2 m/S 616 mmHg 53%

    20 August, Sonntag

    Zeit Temperatur Niederschläge Wind Luftdruck Luftfeuchtigkeit
    00:00 +15°C° 0 mm 2 m/S 616 mmHg 52%
    01:00 +15°C° 0 mm 2 m/S 616 mmHg 53%
    02:00 +14°C° 0 mm 2 m/S 616 mmHg 54%
    03:00 +14°C° 0 mm 2 m/S 616 mmHg 54%
    04:00 +14°C° 0 mm 2 m/S 616 mmHg 55%
    05:00 +14°C° 0 mm 2 m/S 616 mmHg 56%
    06:00 +14°C° 0 mm 2 m/S 616 mmHg 56%
    07:00 +16°C° 0 mm 2 m/S 617 mmHg 50%
    08:00 +19°C° 0 mm 2 m/S 618 mmHg 43%
    09:00 +23°C° 0 mm 2 m/S 619 mmHg 36%
    10:00 +24°C° 0 mm 2 m/S 619 mmHg 33%
    11:00 +26°C° 0 mm 2 m/S 619 mmHg 31%
    12:00 +27°C° 0 mm 3 m/S 619 mmHg 28%
    13:00 +27°C° 0 mm 3 m/S 619 mmHg 27%
    14:00 +28°C° 0 mm 3 m/S 619 mmHg 27%
    15:00 +28°C° 0 mm 3 m/S 618 mmHg 26%
    16:00 +27°C° 0 mm 3 m/S 618 mmHg 30%
    17:00 +25°C° 0 mm 2 m/S 617 mmHg 34%
    18:00 +24°C° 0 mm 2 m/S 617 mmHg 39%
    19:00 +21°C° 0 mm 2 m/S 617 mmHg 42%
    20:00 +19°C° 0 mm 2 m/S 616 mmHg 46%
    21:00 +17°C° 0 mm 2 m/S 616 mmHg 49%
    22:00 +16°C° 0 mm 2 m/S 616 mmHg 49%
    23:00 +16°C° 0 mm 2 m/S 616 mmHg 49%

    21 August, Montag

    Zeit Temperatur Niederschläge Wind Luftdruck Luftfeuchtigkeit
    00:00 +15°C° 0 mm 2 m/S 616 mmHg 49%
    01:00 +15°C° 0 mm 2 m/S 616 mmHg 50%
    02:00 +14°C° 0 mm 2 m/S 615 mmHg 50%
    03:00 +14°C° 0 mm 2 m/S 615 mmHg 51%
    04:00 +14°C° 0 mm 2 m/S 615 mmHg 51%
    05:00 +14°C° 0 mm 2 m/S 615 mmHg 52%
    06:00 +14°C° 0 mm 2 m/S 615 mmHg 52%
    07:00 +17°C° 0 mm 2 m/S 616 mmHg 46%
    08:00 +20°C° 0 mm 2 m/S 617 mmHg 40%
    09:00 +24°C° 0 mm 1 m/S 618 mmHg 33%
    10:00 +25°C° 0 mm 2 m/S 618 mmHg 30%
    11:00 +27°C° 0 mm 2 m/S 618 mmHg 28%
    12:00 +28°C° 0 mm 2 m/S 618 mmHg 25%
    13:00 +28°C° 0 mm 2 m/S 618 mmHg 25%
    14:00 +29°C° 0 mm 2 m/S 618 mmHg 24%
    15:00 +29°C° 0 mm 2 m/S 618 mmHg 24%
    16:00 +27°C° 0 mm 2 m/S 617 mmHg 28%
    17:00 +26°C° 0 mm 2 m/S 617 mmHg 33%
    18:00 +25°C° 0 mm 2 m/S 616 mmHg 38%
    19:00 +21°C° 0 mm 2 m/S 616 mmHg 43%
    20:00 +19°C° 0 mm 2 m/S 615 mmHg 48%
    21:00 +17°C° 0 mm 2 m/S 615 mmHg 53%
    22:00 +17°C° 0 mm 2 m/S 615 mmHg 54%
    23:00 +16°C° 0 mm 2 m/S 615 mmHg 55%

    22 August, Dienstag

    Zeit Temperatur Niederschläge Wind Luftdruck Luftfeuchtigkeit
    00:00 +16°C° 0 mm 2 m/S 615 mmHg 56%
    01:00 +15°C° 0 mm 2 m/S 615 mmHg 55%
    02:00 +15°C° 0 mm 2 m/S 615 mmHg 55%
    03:00 +15°C° 0 mm 2 m/S 614 mmHg 55%
    04:00 +15°C° 0 mm 1 m/S 614 mmHg 55%
    05:00 +15°C° 0 mm 1 m/S 615 mmHg 54%
    06:00 +15°C° 0 mm 1 m/S 615 mmHg 53%
    07:00 +19°C° 0 mm 1 m/S 616 mmHg 45%
    08:00 +21°C° 0 mm 2 m/S 617 mmHg 37%
    09:00 +25°C° 0 mm 2 m/S 618 mmHg 29%
    10:00 +26°C° 0 mm 2 m/S 618 mmHg 27%
    11:00 +28°C° 0 mm 2 m/S 618 mmHg 25%
    12:00 +30°C° 0 mm 2 m/S 618 mmHg 23%
    13:00 +30°C° 0 mm 2 m/S 618 mmHg 23%
    14:00 +30°C° 0 mm 2 m/S 617 mmHg 23%
    15:00 +30°C° 0 mm 2 m/S 617 mmHg 23%
    16:00 +29°C° 0 mm 2 m/S 616 mmHg 27%
    17:00 +27°C° 0 mm 2 m/S 616 mmHg 32%
    18:00 +26°C° 0 mm 2 m/S 616 mmHg 36%
    19:00 +24°C° 0 mm 2 m/S 615 mmHg 41%
    20:00 +21°C° 0 mm 2 m/S 615 mmHg 45%
    21:00 +19°C° 0 mm 2 m/S 615 mmHg 49%
    22:00 +18°C° 0 mm 2 m/S 614 mmHg 50%
    23:00 +18°C° 0 mm 2 m/S 614 mmHg 51%
    Mehr zeigen